Regional Weather Roundup
Issued by NWS

Current Version | Previous Version | Text Only | Print | Product List | Glossary On
Versions: 1 2 3 4 5 6 7 8 9 10 11 12 13 14 15 16 17 18 19 20 21 22 23 24 25 26 27 28 29 30 31 32 33 34 35 36 37 38 39 40 41 42 43 44 45 46 47 48 49 50
000
ASCA42 TJSJ 260711
RWRPR
PUERTO RICO/U.S. VIRGIN ISLANDS HOURLY WEATHER ROUNDUP
NATIONAL WEATHER SERVICE SAN JUAN PR
300 AM AST SAT JUL 26 2014

PRZ001-004-260800-
PUERTO RICO

CITY           SKY/WX    TMP DP  RH WIND       PRES   REMARKS
SAN JUAN LMM   PTCLDY    82  75  78 E12       30.01F
PONCE          CLEAR     82  72  69 E9        29.97F
CEIBA          MOCLDY    82  73  74 E14G20    30.04F
$$

PRZ006-007-260800-
U.S. VIRGIN ISLANDS

CITY           SKY/WX    TMP DP  RH WIND       PRES   REMARKS
CHARLOTTE AMA  MOCLDY    82  73  74 E13       30.00F
CHRISTIANSTED  MOCLDY    81  73  78 E8        30.01F
$$

HOURLY WEATHER ROUNDUP FOR THE NEWS MEDIA

CITY           SKY/WX    TMP DP  RH WIND       PRES   REMARKS
MIAMI          PTCLDY    82  75  79 SE5       30.06F
ORLANDO        CLEAR     78  74  87 SW3       30.06F
NEW YORK       MOCLDY    71  63  75 SW10      30.00F
NEWARK         MOCLDY    69  62  78 SW9       29.99S
CHICAGO        CLOUDY    70  57  63 SW9       29.89F
HARTFORD       CLEAR     61  59  93 SW5       29.98S
BOSTON         CLEAR     67  59  75 SW6       29.97S
DALLAS         CLEAR     84  70  62 S10       29.96S
PHILADELPHIA   MOCLDY    70  59  68 SW7       30.01F


USA.gov is the U.S. government's official web portal to all federal, state and local government web resources and services.